Regional Weather Roundup
Issued by NWS

Home | Current Version | Previous Version | Text Only | Print | Product List | Glossary Off
Versions: 1 2 3 4 5 6 7 8 9 10 11 12 13 14 15 16 17 18 19 20 21 22 23 24 25 26 27 28 29 30 31 32 33 34 35 36 37 38 39 40 41 42 43 44 45 46 47 48 49 50

347
ASUS45 KBOI 150610
RWRID

IDAHO REGIONAL WEATHER ROUNDUP
NATIONAL WEATHER SERVICE BOISE ID
1100 PM MST THU DEC 14 2017

NOTE: "FAIR" INDICATES FEW OR NO CLOUDS BELOW 12000 FEET
WITH NO SIGNIFICANT WEATHER AND/OR OBSTRUCTIONS TO VISIBILITY

IDZ012-014-150700-
SOUTHWEST IDAHO


CITY           SKY/WX    TMP DP  RH WIND       PRES   REMARKS
BOISE          CLOUDY    27  24  89 SE6       30.46S WCI  20
CALDWELL       CLOUDY    28  25  88 E3        30.49S
MOUNTAIN HOME  CLOUDY    26  26 100 E3        30.45F FOG
$$

IDZ016-017-150700-
SOUTHCENTRAL IDAHO


CITY           SKY/WX    TMP DP  RH WIND       PRES   REMARKS
BURLEY         FOG       24  20  84 NE9       30.39S VSB 1/2 WCI  14
JEROME         FOG       26  22  84 E7        30.40F VSB 3/4 WCI  18
TWIN FALLS     FOG       24  24 100 E3        30.39F VSB 1/4
$$

IDZ019>023-150700-
SOUTHEAST IDAHO


CITY           SKY/WX    TMP DP  RH WIND       PRES   REMARKS
IDAHO FALLS    FOG       20  19  96 NE5       30.41F VSB 1/2 WCI  13
POCATELLO      FOG       22  20  92 NE6       30.42F VSB 3/4 WCI  14
REXBURG        CLOUDY    16  14  92 E3        30.37F FOG
$$

IDZ006-010-011-018-031-032-150700-
CENTRAL IDAHO MOUNTAINS


CITY           SKY/WX    TMP DP  RH WIND       PRES   REMARKS
MCCALL         MOCLDY    15  12  88 E5        30.32R FOG     WCI   8
HAILEY         CLEAR     23  21  93 N5        30.36F WCI  17
STANLEY          N/A     10   6  84 CALM      30.37F
SALMON         CLOUDY    29  25  85 CALM      30.40F
CHALLIS        CLOUDY    26  21  81 S7        30.37F WCI  18
$$

IDZ002-004-006-007-026-150700-
NORTHERN IDAHO


CITY           SKY/WX    TMP DP  RH WIND       PRES   REMARKS
LEWISTON       PTCLDY    28  26  92 S5        30.38F WCI  23
LOWELL           N/A     33  31  92 CALM      30.42F
COEUR D`ALENE  CLOUDY    31  27  85 E5        30.33F WCI  26
MULLAN PASS    MOCLDY    27  22  81 SW9       30.19F WCI  18
$$




USA.gov is the U.S. government's official web portal to all federal, state and local government web resources and services.